Nome, AK

11:37 AM AKST on December 15, 2017 (GMT -0900)
Nome

Weather History for PAOM - December, 2012

Change the Weather History Date:

Tuesday, December 18, 2012

  Actual Average Record
Temperature  
Mean Temperature -15 °F 9 °F  
Max Temperature 0 °F 17 °F 36 °F (1932)
Min Temperature -30 °F 2 °F -36 °F (1946)
Degree Days  
Heating Degree Days 80 56  
Month to date heating degree days 1212 977  
Since 1 July heating degree days 5427 5070  
Cooling Degree Days 0 0  
Month to date cooling degree days 0 0  
Year to date cooling degree days 0 3  
Moisture  
Dew Point -19 °F    
Average Humidity 0    
Maximum Humidity 0    
Minimum Humidity 0    
Precipitation  
Precipitation 0.00 in 0.04 in 1.07 in (1931)
Month to date precipitation 0.42 0.62  
Year to date precipitation 18.55 16.35  
Snow  
Snow 0.00 in 0.50 in 10.70 in (1931)
Month to date snowfall 11.9 8.1  
Since 1 July snowfall 14.5 25.4  
Snow Depth 12.00 in    
Sea Level Pressure  
Sea Level Pressure 29.79 in    
Wind  
Wind Speed 7 mph (NW)    
Max Wind Speed 20 mph    
Max Gust Speed 23 mph    
Visibility 10 miles    
Events      
T = Trace of Precipitation, MM = Missing Value Source: NWS Daily Summary

Daily Weather History Graph

Daily Weather History Graph

Search for Another Location

Airport or City:

Trip Planner

Search our weather history database for the weather conditions in past years. The results will help you decide how hot, cold, wet, or windy it might be!

Date:

Astronomy

Dec. 18, 2012 Rise Set
Actual Time 12:01 PM AKST 3:56 PM AKST
Civil Twilight 10:38 AM AKST 5:18 PM AKST
Nautical Twilight 9:28 AM AKST 6:29 PM AKST
Astronomical Twilight 8:27 AM AKST 7:30 PM AKST
Moon 1:18 PM AKST (12/18) No Moon Set
Length of Visible Light 6h 39m
Length of Day
3h 55m
Waxing Crescent, 36% of the Moon is Illuminated
Dec 18
Waxing Crescent
Dec 19
First Quarter
Dec 28
Full
Jan 4
Last Quarter
Jan 11
New

Hourly Weather History & Observations

Time (AKST) Temp. Windchill Dew Point Humidity Pressure Visibility Wind Dir Wind Speed Gust Speed Precip Events Conditions
12:53 AM -0.9 °F -18.3 °F -9.9 °F 66% 29.42 in 10.0 mi WNW 11.5 mph - N/A   Scattered Clouds
1:53 AM -2.0 °F -18.7 °F -9.9 °F 69% 29.45 in 10.0 mi WNW 10.4 mph - N/A   Scattered Clouds
2:53 AM -5.1 °F -25.9 °F -11.0 °F 76% 29.49 in 10.0 mi WNW 15.0 mph - N/A   Partly Cloudy
3:53 AM -5.1 °F -24.3 °F -9.9 °F 80% 29.51 in 10.0 mi WNW 12.7 mph - N/A   Partly Cloudy
4:53 AM -6.0 °F -28.4 °F -13.0 °F 72% 29.54 in 10.0 mi WNW 17.3 mph - N/A   Clear
5:53 AM -7.1 °F -28.4 °F -14.1 °F 72% 29.58 in 10.0 mi NW 15.0 mph - N/A   Partly Cloudy
6:53 AM -6.0 °F -21.5 °F -14.1 °F 68% 29.60 in 10.0 mi WNW 8.1 mph 17.3 mph N/A   Scattered Clouds
7:53 AM -5.1 °F -20.4 °F -13.0 °F 69% 29.63 in 10.0 mi North 8.1 mph - N/A   Scattered Clouds
8:53 AM -6.0 °F -27.0 °F -13.0 °F 72% 29.67 in 10.0 mi West 15.0 mph - N/A   Scattered Clouds
9:53 AM -8.0 °F -28.0 °F -14.1 °F 75% 29.70 in 10.0 mi West 12.7 mph - N/A   Partly Cloudy
10:53 AM -8.0 °F -25.0 °F -16.1 °F 68% 29.74 in 10.0 mi West 9.2 mph - N/A   Partly Cloudy
11:53 AM -9.9 °F -21.5 °F -17.0 °F 71% 29.77 in 10.0 mi NNW 4.6 mph - N/A   Clear
12:53 PM -15.0 °F - -20.9 °F 75% 29.79 in 10.0 mi Calm Calm - N/A   Clear
1:53 PM -17.0 °F - -20.9 °F 82% 29.84 in 10.0 mi Calm Calm - N/A   Clear
2:53 PM -18.9 °F - -23.1 °F 81% 29.86 in 106.0 mi Calm Calm - N/A   Clear
3:53 PM -20.0 °F -30.7 °F -26.0 °F 74% 29.90 in 10.0 mi North 3.5 mph - N/A   Clear
4:53 PM -11.9 °F -28.7 °F -18.0 °F 74% 29.94 in 10.0 mi WNW 8.1 mph - N/A   Clear
5:53 PM -11.9 °F -28.7 °F -20.0 °F 67% 29.98 in 10.0 mi WNW 8.1 mph - N/A   Clear
6:53 PM -11.0 °F -29.9 °F -20.0 °F 64% 30.02 in 10.0 mi WNW 10.4 mph - N/A   Clear
7:53 PM -20.0 °F -30.7 °F -26.0 °F 74% 30.05 in 10.0 mi NE 3.5 mph - N/A   Clear
8:53 PM -18.9 °F - -24.0 °F 78% 30.10 in 10.0 mi Calm Calm - N/A   Clear
9:53 PM -25.1 °F - -32.1 °F 70% 30.12 in 10.0 mi Calm Calm - N/A   Clear
10:53 PM -29.0 °F -46.0 °F -35.0 °F 73% 30.16 in 10.0 mi North 5.8 mph - N/A   Clear
11:53 PM -29.9 °F - -34.6 °F 78% 30.18 in 10.0 mi Calm Calm - N/A   Clear